Weather History for Plainview, TX

Change the Weather History Date:

Saturday, October 27, 2012

  Actual Average Record
Temperature  
Mean Temperature 38 °F -  
Max Temperature 53 °F 70 °F 88 °F (1950)
Min Temperature 24 °F 43 °F 22 °F (1913)
Degree Days  
Heating Degree Days 26    
Moisture  
Dew Point 21 °F    
Average Humidity 51    
Maximum Humidity 80    
Minimum Humidity 28    
Precipitation  
Precipitation 0.00 in - - ()
Sea Level Pressure  
Sea Level Pressure 30.24 in    
Wind  
Wind Speed 3 mph (South)    
Max Wind Speed 12 mph    
Max Gust Speed 17 mph    
Visibility 10 miles    
Events      
Averages and records for this station are not official NWS values.
T = Trace of Precipitation, MM = Missing Value Source: NWS Daily Summary

Daily Weather History Graph

Daily Weather History Graph

Search for Another Location

Airport:

Trip Planner

Search our weather history database for the weather conditions in past years. The results will help you decide how hot, cold, wet, or windy it might be!

Date:

Astronomy

Oct. 27, 2012 Rise Set
Actual Time 8:02 AM CDT 6:58 PM CDT
Civil Twilight 7:36 AM CDT 7:23 PM CDT
Nautical Twilight 7:07 AM CDT 7:53 PM CDT
Astronomical Twilight 6:38 AM CDT 8:22 PM CDT
Moon 5:42 PM CDT (10/27) 6:03 AM CDT (10/27)
Length of Visible Light 11h 47m
Length of Day
10h 55m
Waxing Gibbous, 96% of the Moon is Illuminated
Oct 27
Waxing Gibbous
Oct 29
Full
Nov 6
Last Quarter
Nov 13
New
Nov 20
First Quarter

Hourly Weather History & Observations

Time (CDT) Temp. Windchill Dew Point Humidity Pressure Visibility Wind Dir Wind Speed Gust Speed Precip Events Conditions
12:15 AM 33.8 °F - 19.4 °F 56% 30.36 in 10.0 mi Calm Calm - N/A   Clear
12:35 AM 33.8 °F - 19.4 °F 56% 30.36 in 10.0 mi Calm Calm - N/A   Clear
12:55 AM 30.2 °F - 17.6 °F 60% 30.35 in 10.0 mi Calm Calm - N/A   Clear
1:15 AM 30.2 °F - 19.4 °F 64% 30.34 in 10.0 mi Calm Calm - N/A   Clear
1:35 AM 30.2 °F - 19.4 °F 64% 30.34 in 10.0 mi Calm Calm - N/A   Clear
1:55 AM 30.2 °F 26.7 °F 19.4 °F 64% 30.34 in 10.0 mi NW 3.5 mph - N/A   Clear
2:15 AM 30.2 °F 26.7 °F 21.2 °F 69% 30.33 in 10.0 mi NNW 3.5 mph - N/A   Clear
2:35 AM 30.2 °F - 19.4 °F 64% 30.33 in 10.0 mi Calm Calm - N/A   Clear
2:55 AM 30.2 °F - 19.4 °F 64% 30.33 in 10.0 mi Calm Calm - N/A   Clear
3:15 AM 30.2 °F - 19.4 °F 64% 30.32 in 10.0 mi Calm Calm - N/A   Clear
3:35 AM 30.2 °F - 21.2 °F 69% 30.31 in 10.0 mi Calm Calm - N/A   Clear
3:55 AM 30.2 °F - 19.4 °F 64% 30.31 in 10.0 mi Calm Calm - N/A   Clear
4:15 AM 30.2 °F - 21.2 °F 69% 30.31 in 10.0 mi Calm Calm - N/A   Clear
4:35 AM 28.4 °F - 19.4 °F 69% 30.31 in 10.0 mi Calm Calm - N/A   Clear
4:55 AM 28.4 °F - 19.4 °F 69% 30.30 in 10.0 mi Calm Calm - N/A   Clear
5:15 AM 26.6 °F - 17.6 °F 69% 30.30 in 10.0 mi Calm Calm - N/A   Clear
5:35 AM 28.4 °F - 19.4 °F 69% 30.30 in 10.0 mi Calm Calm - N/A   Clear
5:55 AM 26.6 °F - 17.6 °F 69% 30.30 in 10.0 mi Calm Calm - N/A   Clear
6:15 AM 28.4 °F - 19.4 °F 69% 30.29 in 10.0 mi Calm Calm - N/A   Clear
6:55 AM 26.6 °F - 17.6 °F 69% 30.29 in 10.0 mi Calm Calm - N/A   Clear
7:15 AM 26.6 °F - 17.6 °F 69% 30.29 in 10.0 mi Calm Calm - N/A   Clear
7:35 AM 28.4 °F - 19.4 °F 69% 30.30 in 10.0 mi Calm Calm - N/A   Clear
7:55 AM 24.8 °F - 19.4 °F 80% 30.29 in 10.0 mi Calm Calm - N/A   Clear
8:15 AM 26.6 °F - 17.6 °F 69% 30.29 in 10.0 mi Calm Calm - N/A   Clear
8:35 AM 28.4 °F - 21.2 °F 74% 30.30 in 10.0 mi Calm Calm - N/A   Clear
9:15 AM 33.8 °F - 24.8 °F 70% 30.31 in 10.0 mi Calm Calm - N/A   Clear
9:35 AM 33.8 °F 28.6 °F 23.0 °F 65% 30.31 in 10.0 mi South 5.8 mph - N/A   Clear
9:55 AM 35.6 °F 29.2 °F 23.0 °F 60% 30.31 in 10.0 mi South 8.1 mph - N/A   Clear
10:35 AM 39.2 °F 33.0 °F 21.2 °F 49% 30.30 in 10.0 mi South 9.2 mph - N/A   Clear
10:55 AM 41.0 °F 35.8 °F 23.0 °F 49% 30.29 in 10.0 mi South 8.1 mph - N/A   Clear
11:15 AM 41.0 °F 35.8 °F 23.0 °F 49% 30.28 in 10.0 mi SSE 8.1 mph - N/A   Clear
11:35 AM 42.8 °F 38.6 °F 23.0 °F 46% 30.27 in 10.0 mi South 6.9 mph - N/A   Clear
11:55 AM 44.6 °F 39.7 °F 23.0 °F 43% 30.27 in 10.0 mi South 9.2 mph - N/A   Clear
12:15 PM 44.6 °F 40.7 °F 23.0 °F 43% 30.26 in 10.0 mi South 6.9 mph - N/A   Clear
12:35 PM 48.2 °F - 23.0 °F 37% 30.24 in 10.0 mi SSW 10.4 mph - N/A   Clear
12:55 PM 50.0 °F - 23.0 °F 35% 30.22 in 10.0 mi South 8.1 mph - N/A   Clear
1:15 PM 50.0 °F - 23.0 °F 35% 30.21 in 10.0 mi South 8.1 mph - N/A   Clear
1:35 PM 50.0 °F - 21.2 °F 32% 30.20 in 10.0 mi SSW 9.2 mph - N/A   Clear
1:55 PM 50.0 °F - 21.2 °F 32% 30.18 in 10.0 mi SSW 8.1 mph - N/A   Clear
2:15 PM 50.0 °F - 23.0 °F 35% 30.18 in 10.0 mi SSW 6.9 mph - N/A   Clear
2:35 PM 51.8 °F - 21.2 °F 30% 30.17 in 10.0 mi SSW 4.6 mph - N/A   Clear
2:55 PM 51.8 °F - 23.0 °F 33% 30.16 in 10.0 mi SSW 9.2 mph 17.3 mph N/A   Clear
3:15 PM 53.6 °F - 23.0 °F 30% 30.14 in 10.0 mi South 8.1 mph 16.1 mph N/A   Clear
3:35 PM 53.6 °F - 23.0 °F 30% 30.13 in 10.0 mi SSW 11.5 mph 16.1 mph N/A   Clear
3:55 PM 53.6 °F - 23.0 °F 30% 30.13 in 10.0 mi WSW 9.2 mph 16.1 mph N/A   Clear
4:15 PM 53.6 °F - 23.0 °F 30% 30.12 in 10.0 mi SSW 11.5 mph - N/A   Clear
4:35 PM 53.6 °F - 23.0 °F 30% 30.12 in 10.0 mi SSW 11.5 mph - N/A   Clear
4:55 PM 53.6 °F - 23.0 °F 30% 30.12 in 10.0 mi SW 6.9 mph - N/A   Clear
5:15 PM 53.6 °F - 23.0 °F 30% 30.12 in 10.0 mi SW 10.4 mph - N/A   Clear
5:35 PM 53.6 °F - 21.2 °F 28% 30.12 in 10.0 mi South 4.6 mph - N/A   Clear
5:55 PM 53.6 °F - 23.0 °F 30% 30.12 in 10.0 mi South 6.9 mph - N/A   Clear
6:15 PM 53.6 °F - 23.0 °F 30% 30.12 in 10.0 mi SSW 5.8 mph - N/A   Clear
6:35 PM 51.8 °F - 21.2 °F 30% 30.12 in 10.0 mi SSE 5.8 mph - N/A   Clear
6:55 PM 50.0 °F - 21.2 °F 32% 30.13 in 10.0 mi SSE 5.8 mph - N/A   Clear
7:15 PM 46.4 °F 43.5 °F 23.0 °F 40% 30.13 in 10.0 mi SSE 5.8 mph - N/A   Clear
7:35 PM 42.8 °F 39.3 °F 21.2 °F 42% 30.14 in 10.0 mi SE 5.8 mph - N/A   Clear
7:55 PM 42.8 °F 38.6 °F 21.2 °F 42% 30.15 in 10.0 mi SE 6.9 mph - N/A   Clear
8:15 PM 42.8 °F 38.0 °F 21.2 °F 42% 30.16 in 10.0 mi SE 8.1 mph - N/A   Clear
8:55 PM 42.8 °F 37.5 °F 21.2 °F 42% 30.16 in 10.0 mi SE 9.2 mph - N/A   Clear
9:15 PM 41.0 °F 35.8 °F 23.0 °F 49% 30.17 in 10.0 mi SE 8.1 mph - N/A   Clear
9:35 PM 41.0 °F 36.4 °F 23.0 °F 49% 30.17 in 10.0 mi SSE 6.9 mph - N/A   Clear
9:55 PM 39.2 °F 34.2 °F 23.0 °F 52% 30.18 in 10.0 mi SSE 6.9 mph - N/A   Clear
10:35 PM 39.2 °F 33.6 °F 23.0 °F 52% 30.20 in 10.0 mi SSE 8.1 mph - N/A   Clear
11:15 PM 39.2 °F 33.6 °F 24.8 °F 56% 30.20 in 10.0 mi South 8.1 mph - N/A   Clear
11:35 PM 39.2 °F 33.6 °F 24.8 °F 56% 30.20 in 10.0 mi South 8.1 mph - N/A   Clear
11:55 PM 37.4 °F 32.1 °F 24.8 °F 60% 30.20 in 10.0 mi SSE 6.9 mph - N/A   Clear